Weather History for Rome Ciampino, Italy

Change the Weather History Date:

Friday, November 2, 2012

  Actual Average Record
Temperature  
Mean Temperature 60 °F -  
Max Temperature 66 °F 61 °F 77 °F (2004)
Min Temperature 55 °F 44 °F 44 °F (1996)
Degree Days  
Heating Degree Days 4    
Growing Degree Days 10 (Base 50)    
Moisture  
Dew Point 54 °F    
Average Humidity 83    
Maximum Humidity 94    
Minimum Humidity 64    
Precipitation  
Precipitation 0.00 in 0.17 in - ()
Sea Level Pressure  
Sea Level Pressure 29.85 in    
Wind  
Wind Speed 4 mph ()    
Max Wind Speed 7 mph    
Max Gust Speed -    
Visibility 6.2 miles    
Events      
Averages and records for this station are not official NWS values.
T = Trace of Precipitation, MM = Missing Value Source: Averaged Metar Reports

Daily Weather History Graph

Daily Weather History Graph

Search for Another Location

Airport:

Trip Planner

Search our weather history database for the weather conditions in past years. The results will help you decide how hot, cold, wet, or windy it might be!

Date:

Astronomy

Nov. 02, 2012 Rise Set
Actual Time 6:43 AM CET 5:02 PM CET
Civil Twilight 6:14 AM CET 5:31 PM CET
Nautical Twilight 5:41 AM CET 6:04 PM CET
Astronomical Twilight 5:08 AM CET 6:36 PM CET
Moon 7:33 PM CET (11/2) 9:52 AM CET (11/2)
Length of Visible Light 11h 17m
Length of Day
10h 19m
Waning Gibbous, 89% of the Moon is Illuminated
Nov 2
Waning Gibbous
Nov 7
Last Quarter
Nov 13
New
Nov 20
First Quarter
Nov 28
Full

Hourly Weather History & Observations

Time (CET) Temp. Dew Point Humidity Pressure Visibility Wind Dir Wind Speed Gust Speed Precip Events Conditions
12:15 AM 60.8 °F 57.2 °F 88% 29.68 in 6.2 mi South 6.9 mph - N/A   Partly Cloudy
12:45 AM 57.2 °F 53.6 °F 88% 29.71 in 6.2 mi SSE 3.5 mph - N/A   Partly Cloudy
1:15 AM 55.4 °F 51.8 °F 88% 29.71 in - SSE 4.6 mph - N/A   Clear
1:45 AM 57.2 °F 53.6 °F 88% 29.71 in 6.2 mi SSE 3.5 mph - N/A   Partly Cloudy
2:15 AM 55.4 °F 53.6 °F 94% 29.74 in 6.2 mi SSE 3.5 mph - N/A   Partly Cloudy
2:45 AM 55.4 °F 53.6 °F 94% 29.74 in 6.2 mi SSE 3.5 mph - N/A   Partly Cloudy
3:15 AM 57.2 °F 53.6 °F 88% 29.74 in 6.2 mi South 3.5 mph - N/A   Partly Cloudy
3:45 AM 57.2 °F 53.6 °F 88% 29.74 in 6.2 mi South 3.5 mph - N/A   Partly Cloudy
4:15 AM 55.4 °F 51.8 °F 88% 29.74 in 6.2 mi SSE 4.6 mph - N/A   Scattered Clouds
4:45 AM 55.4 °F 51.8 °F 88% 29.74 in 6.2 mi SSE 4.6 mph - N/A   Scattered Clouds
5:15 AM 55.4 °F 53.6 °F 94% 29.74 in 6.2 mi SSE 5.8 mph - N/A   Scattered Clouds
5:45 AM 55.4 °F 51.8 °F 88% 29.74 in 6.2 mi SSE 2.3 mph - N/A   Scattered Clouds
6:15 AM 55.4 °F 53.6 °F 94% 29.77 in 6.2 mi South 4.6 mph - N/A   Scattered Clouds
6:45 AM 57.2 °F 53.6 °F 88% 29.77 in - North - - N/A   Mostly Cloudy
7:15 AM 57.2 °F 53.6 °F 88% 29.77 in - North - - N/A   Mostly Cloudy
7:45 AM 57.2 °F 53.6 °F 88% 29.80 in - North - - N/A   Mostly Cloudy
8:15 AM 57.2 °F 55.4 °F 94% 29.83 in - North - - N/A   Scattered Clouds
8:45 AM 60.8 °F 55.4 °F 82% 29.83 in - North - - N/A   Scattered Clouds
9:15 AM 62.6 °F 57.2 °F 82% 29.83 in - North - - N/A   Scattered Clouds
9:45 AM 64.4 °F 57.2 °F 77% 29.83 in - North - - N/A   Scattered Clouds
10:15 AM 64.4 °F 55.4 °F 73% 29.83 in - North - - N/A   Scattered Clouds
10:45 AM 64.4 °F 55.4 °F 73% 29.86 in - North - - N/A   Scattered Clouds
11:15 AM 64.4 °F 55.4 °F 73% 29.86 in - North - - N/A   Scattered Clouds
11:45 AM 64.4 °F 55.4 °F 73% 29.86 in - North - - N/A   Scattered Clouds
12:15 PM 66.2 °F 55.4 °F 68% 29.86 in - North - - N/A   Scattered Clouds
12:45 PM 66.2 °F 55.4 °F 68% 29.86 in - North - - N/A   Scattered Clouds
1:15 PM 66.2 °F 55.4 °F 68% 29.86 in - North - - N/A   Scattered Clouds
1:45 PM 66.2 °F 55.4 °F 68% 29.86 in - North - - N/A   Scattered Clouds
2:15 PM 64.4 °F 55.4 °F 73% 29.89 in - North - - N/A   Mostly Cloudy
2:45 PM 66.2 °F 55.4 °F 68% 29.89 in - North - - N/A   Scattered Clouds
3:15 PM 66.2 °F 55.4 °F 68% 29.89 in - North - - N/A   Scattered Clouds
3:45 PM 66.2 °F 53.6 °F 64% 29.89 in - North - - N/A   Partly Cloudy
4:15 PM 62.6 °F 53.6 °F 72% 29.89 in - North - - N/A   Partly Cloudy
4:45 PM 60.8 °F 55.4 °F 82% 29.92 in - North - - N/A   Partly Cloudy
5:15 PM 60.8 °F 57.2 °F 88% 29.92 in 6.2 mi SSW 5.8 mph - N/A   Partly Cloudy
5:45 PM 59.0 °F 55.4 °F 88% 29.92 in 6.2 mi South 4.6 mph - N/A   Partly Cloudy
6:15 PM 59.0 °F 55.4 °F 88% 29.92 in 6.2 mi SSE 4.6 mph - N/A   Partly Cloudy
6:45 PM 59.0 °F 55.4 °F 88% 29.92 in - SSE 5.8 mph - N/A   Clear
7:15 PM 57.2 °F 55.4 °F 94% 29.92 in 6.2 mi SSE 4.6 mph - N/A   Partly Cloudy
7:45 PM 57.2 °F 55.4 °F 94% 29.95 in 6.2 mi SSE 5.8 mph - N/A   Scattered Clouds
8:15 PM 57.2 °F 53.6 °F 88% 29.95 in 6.2 mi SE 4.6 mph - N/A   Partly Cloudy
8:45 PM 57.2 °F 53.6 °F 88% 29.95 in 6.2 mi SE 5.8 mph - N/A   Partly Cloudy
9:15 PM 57.2 °F 53.6 °F 88% 29.98 in 6.2 mi SSE 5.8 mph - N/A   Partly Cloudy
9:45 PM 57.2 °F 53.6 °F 88% 29.98 in 6.2 mi SSE 5.8 mph - N/A   Partly Cloudy
10:15 PM 55.4 °F 51.8 °F 88% 29.98 in 6.2 mi SSE 4.6 mph - N/A   Partly Cloudy
10:45 PM 55.4 °F 51.8 °F 88% 29.98 in 6.2 mi SSE 5.8 mph - N/A   Partly Cloudy
11:15 PM 55.4 °F 51.8 °F 88% 29.98 in - SSE 5.8 mph - N/A   Clear
11:45 PM 57.2 °F 53.6 °F 88% 29.98 in - South 4.6 mph - N/A   Clear